Content
SEND FEEDBACK

Daily
Averages
Monthly
Summary
United States of America

ST. LOUIS, MISSOURI


Home > North America > United States > Missouri
Elevation: 535 feet     Latitude: 38 45N     Longitude: 090 22W

WEATHER
 
SELECT A DAY
Number of Records: 196,395;   Date Range: 1/1/95 - 7/29/14
 
SHARE

PRINT THIS DATA

[ ← Previous Day ]
WEATHER ALMANAC - FEBRUARY 14, 2013
[ Next Day → ]
[ °C ]   °F
Weather ElementAverageHighLow
Temperature45.8 °F57 °F (1:54 pm)37.9 °F (9:54 pm)
Dewpoint30.1 °F32 °F (9:54 am)28 °F (2:54 pm)
Humidity55.8 %73 % (9:54 pm)33 % (2:54 pm)
Barometer29.94 in30.08 in (11:54 pm)29.82 in (3:54 am)
Wind Speed10.1 mph16.1 mph (10:54 am)
Wind Gust21.9 mph (11:54 am)
Weather ElementAverage
Visibility10 mi
Wind DirectionWSW (259.6 °)

Weather ElementTotal
Precipitation---
Heating Degree Days17.6 (Base 65)
Averaged from 23 records on February 14, 2013
WEATHER CONDITIONS BREAKOUT
WIND DIRECTION BREAKOUT
WEATHER BY HOUR - FEBRUARY 14, 2013
[ °C ]   °F
Local TimeTemperatureDewpointHumidityBarometerVisibilityWind DirectionWind SpeedGust SpeedPrecipitationEventsConditions
1:54 AM41.0 °F30.0 °F65 %29.84 in10.0 miWSW (240°)11.5 mphClear
2:54 AM41.0 °F30.0 °F65 %29.83 in10.0 miWSW (240°)11.5 mphMostly Cloudy
3:54 AM41.0 °F30.0 °F65 %29.82 in10.0 miWSW (240°)11.5 mphPartly Cloudy
4:54 AM39.9 °F30.0 °F68 %29.83 in10.0 miWSW (240°)11.5 mphClear
5:54 AM39.9 °F30.0 °F68 %29.84 in10.0 miWSW (240°)10.4 mphClear
6:54 AM39.0 °F28.9 °F67 %29.86 in10.0 miWSW (250°)10.4 mphPartly Cloudy
7:54 AM41.0 °F30.0 °F65 %29.90 in10.0 miWSW (250°)10.4 mphMostly Cloudy
8:54 AM42.1 °F30.0 °F62 %29.92 in10.0 miWest (260°)9.2 mphMostly Cloudy
9:54 AM48.0 °F32.0 °F54 %29.92 in10.0 miWSW (240°)9.2 mphPartly Cloudy
10:54 AM52.0 °F32.0 °F47 %29.94 in10.0 miNW (310°)16.1 mph19.6 mphPartly Cloudy
11:54 AM54.0 °F32.0 °F43 %29.94 in10.0 miWNW (300°)13.8 mph21.9 mphScattered Clouds
12:54 PM54.0 °F32.0 °F43 %29.92 in10.0 miWSW (240°)12.7 mphMostly Cloudy
1:54 PM57.0 °F30.9 °F37 %29.91 in10.0 miWSW (250°)13.8 mph20.7 mphPartly Cloudy
2:54 PM57.0 °F28.0 °F33 %29.93 in10.0 miWest (260°)10.4 mph19.6 mphClear
3:54 PM53.1 °F28.9 °F40 %29.95 in10.0 miNW (310°)11.5 mphScattered Clouds
4:54 PM52.0 °F30.0 °F43 %29.97 in10.0 miNW (320°)13.8 mphScattered Clouds
5:54 PM46.9 °F30.9 °F54 %30.01 in10.0 miNW (310°)8.1 mphMostly Cloudy
6:54 PM46.9 °F30.0 °F52 %30.04 in10.0 miNW (310°)12.7 mphClear
7:54 PM45.0 °F28.9 °F53 %30.06 in10.0 miWNW (300°)6.9 mphClear
8:54 PM41.0 °F30.0 °F65 %30.06 in10.0 miWSW (250°)4.6 mphPartly Cloudy
9:54 PM37.9 °F30.0 °F73 %30.06 in10.0 miCalmMostly Cloudy
10:54 PM42.1 °F28.9 °F60 %30.07 in10.0 miNW (320°)8.1 mphScattered Clouds
11:54 PM41.0 °F28.9 °F62 %30.08 in10.0 miWNW (290°)4.6 mphOvercast
Hourly data recorded from KSUS, located miles away from St. Louis, Missouri







STORIES FROM OUR PARTNERS